Powrót do katalogu

SL-14 R/B

AktywnyPO
NORAD 15517·ROCKET BODY·🇷🇺 Russia

Wystrzelony Feb 6, 1985 z Plesetsk Cosmodrome

Loading…

Następne Przeloty (najbliższe 24 godziny)

TLE

ŚwieżeSource: Space-Track

Epoka: Sep 14, 2026, 06:42 UTC

1 15517U 85013B   26257.27977896  .00000021  00000-0  57373-5 0  9996
2 15517  82.5317 272.6417 0016023  70.5683 289.7207 13.85006307102334

Śledź SL-14 R/B w czasie rzeczywistym z AllMySat

Download on the App Store